Time,TemperatureF,DewpointF,PressureIn,WindDirection,WindDirectionDegrees,WindSpeedMPH,WindSpeedGustMPH,Humidity,HourlyPrecipIn,Conditions,Clouds,dailyrainin,SoftwareType,DateUTC
2013-07-28 00:01:00,68.9,68.0,29.99,NW,315,0.7,0.7,97,0.00,,,0.00,meteobridge,2013-07-28 04:01:00,
2013-07-28 00:02:00,68.9,68.0,29.99,South,180,0.0,0.7,97,0.00,,,0.00,meteobridge,2013-07-28 04:02:00,
2013-07-28 00:04:00,68.9,68.0,29.99,South,180,0.0,0.0,97,0.00,,,0.00,meteobridge,2013-07-28 04:04:00,
2013-07-28 00:09:00,68.9,68.0,29.99,North,0,0.0,0.7,97,0.00,,,0.00,meteobridge,2013-07-28 04:09:00,
2013-07-28 00:14:00,69.1,68.2,30.00,South,180,0.0,0.0,97,0.00,,,0.00,meteobridge,2013-07-28 04:14:00,
2013-07-28 00:19:00,69.1,68.2,29.99,South,180,0.0,0.0,97,0.00,,,0.00,meteobridge,2013-07-28 04:19:00,
2013-07-28 00:24:00,69.3,68.4,29.99,South,180,0.0,0.0,97,0.00,,,0.00,meteobridge,2013-07-28 04:24:00,
2013-07-28 00:29:00,69.3,68.4,29.99,South,180,0.0,0.0,97,0.00,,,0.00,meteobridge,2013-07-28 04:29:00,
2013-07-28 00:35:00,69.3,68.4,29.99,South,180,0.0,0.0,97,0.00,,,0.00,meteobridge,2013-07-28 04:35:00,
2013-07-28 00:40:00,69.3,68.4,29.98,South,180,0.0,0.0,97,0.00,,,0.00,meteobridge,2013-07-28 04:40:00,
2013-07-28 00:45:00,69.3,68.4,29.98,South,180,0.0,0.0,97,0.00,,,0.00,meteobridge,2013-07-28 04:45:00,
2013-07-28 00:50:00,69.4,68.5,29.98,SE,135,0.7,0.7,97,0.00,,,0.00,meteobridge,2013-07-28 04:50:00,
2013-07-28 00:55:00,69.4,68.5,29.98,NW,315,0.0,0.0,97,0.00,,,0.00,meteobridge,2013-07-28 04:55:00,
2013-07-28 01:00:00,69.4,68.5,29.98,North,0,0.0,0.0,97,0.00,,,0.00,meteobridge,2013-07-28 05:00:00,
2013-07-28 01:06:00,69.4,68.5,29.99,SE,135,0.0,0.0,97,0.00,,,0.00,meteobridge,2013-07-28 05:06:00,
2013-07-28 01:11:00,69.4,68.5,29.98,SE,135,0.0,0.0,97,0.00,,,0.00,meteobridge,2013-07-28 05:11:00,
2013-07-28 01:16:00,69.4,68.5,29.99,South,180,0.0,0.0,97,0.00,,,0.00,meteobridge,2013-07-28 05:16:00,
2013-07-28 01:21:00,69.3,68.4,29.98,NW,315,0.7,0.7,97,0.00,,,0.00,meteobridge,2013-07-28 05:21:00,
2013-07-28 01:26:00,69.3,68.4,29.99,North,0,0.0,0.0,97,0.00,,,0.00,meteobridge,2013-07-28 05:26:00,
2013-07-28 01:31:00,69.3,68.4,29.99,East,90,0.0,0.7,97,0.00,,,0.00,meteobridge,2013-07-28 05:31:00,
2013-07-28 01:36:00,69.1,68.2,29.99,NW,315,0.0,0.0,97,0.00,,,0.00,meteobridge,2013-07-28 05:36:00,
2013-07-28 01:42:00,69.1,68.2,29.99,NW,315,0.0,0.0,97,0.00,,,0.00,meteobridge,2013-07-28 05:42:00,
2013-07-28 01:47:00,68.9,68.0,29.98,South,180,0.7,0.7,97,0.00,,,0.00,meteobridge,2013-07-28 05:47:00,
2013-07-28 01:52:00,68.9,68.0,29.98,South,180,0.7,0.7,97,0.00,,,0.00,meteobridge,2013-07-28 05:52:00,
2013-07-28 01:57:00,68.7,67.5,29.98,NW,315,0.7,0.7,96,0.00,,,0.00,meteobridge,2013-07-28 05:57:00,
2013-07-28 02:02:00,68.7,67.5,29.97,South,180,0.0,0.7,96,0.00,,,0.00,meteobridge,2013-07-28 06:02:00,
2013-07-28 02:07:00,68.7,67.5,29.97,NE,45,0.0,0.0,96,0.00,,,0.00,meteobridge,2013-07-28 06:07:00,
2013-07-28 02:13:00,68.7,67.5,29.97,North,0,0.0,0.0,96,0.00,,,0.00,meteobridge,2013-07-28 06:13:00,
2013-07-28 02:18:00,68.7,67.5,29.98,SE,135,0.0,0.0,96,0.00,,,0.00,meteobridge,2013-07-28 06:18:00,
2013-07-28 02:23:00,68.7,67.5,29.98,South,180,0.0,1.6,96,0.00,,,0.00,meteobridge,2013-07-28 06:23:00,
2013-07-28 02:28:00,68.9,68.0,29.98,WSW,248,1.6,1.6,97,0.00,,,0.00,meteobridge,2013-07-28 06:28:00,
2013-07-28 02:33:00,68.7,67.8,29.97,NW,315,0.0,0.7,97,0.00,,,0.00,meteobridge,2013-07-28 06:33:00,
2013-07-28 02:38:00,68.9,68.0,29.97,South,180,0.0,0.0,97,0.00,,,0.00,meteobridge,2013-07-28 06:38:00,
2013-07-28 02:44:00,68.9,68.0,29.97,South,180,0.0,0.0,97,0.00,,,0.00,meteobridge,2013-07-28 06:44:00,
2013-07-28 02:49:00,68.9,68.0,29.96,SE,135,1.6,1.6,97,0.00,,,0.00,meteobridge,2013-07-28 06:49:00,
2013-07-28 02:54:00,68.9,68.0,29.96,WNW,293,0.7,0.7,97,0.00,,,0.00,meteobridge,2013-07-28 06:54:00,
2013-07-28 02:59:00,69.1,68.2,29.96,North,0,0.7,0.7,97,0.00,,,0.00,meteobridge,2013-07-28 06:59:00,
2013-07-28 03:04:00,69.1,68.2,29.96,NW,315,0.7,0.7,97,0.00,,,0.00,meteobridge,2013-07-28 07:04:00,
2013-07-28 03:09:00,69.1,68.2,29.96,South,180,0.0,0.0,97,0.00,,,0.00,meteobridge,2013-07-28 07:09:00,
2013-07-28 03:15:00,69.1,68.2,29.96,South,180,0.0,0.0,97,0.00,,,0.00,meteobridge,2013-07-28 07:15:00,
2013-07-28 03:20:00,69.1,68.2,29.96,East,90,0.0,0.0,97,0.00,,,0.00,meteobridge,2013-07-28 07:20:00,
2013-07-28 03:25:00,69.1,68.2,29.96,West,270,0.7,0.7,97,0.00,,,0.00,meteobridge,2013-07-28 07:25:00,
2013-07-28 03:30:00,68.9,68.4,29.96,West,270,0.7,1.6,98,0.00,,,0.00,meteobridge,2013-07-28 07:30:00,
2013-07-28 03:35:00,68.9,68.4,29.95,SE,135,0.0,0.0,98,0.00,,,0.00,meteobridge,2013-07-28 07:35:00,
2013-07-28 03:40:00,68.9,68.4,29.95,South,180,0.0,0.0,98,0.00,,,0.00,meteobridge,2013-07-28 07:40:00,
2013-07-28 03:46:00,68.7,68.2,29.95,North,0,0.0,0.7,98,0.00,,,0.00,meteobridge,2013-07-28 07:46:00,
2013-07-28 03:51:00,68.7,68.2,29.95,SE,135,0.7,0.7,98,0.00,,,0.00,meteobridge,2013-07-28 07:51:00,
2013-07-28 03:56:00,68.7,68.2,29.95,North,0,0.7,0.7,98,0.00,,,0.00,meteobridge,2013-07-28 07:56:00,
2013-07-28 04:01:00,68.7,68.2,29.95,SW,225,0.7,0.7,98,0.00,,,0.00,meteobridge,2013-07-28 08:01:00,
2013-07-28 04:06:00,68.7,68.2,29.95,West,270,0.0,0.0,98,0.00,,,0.00,meteobridge,2013-07-28 08:06:00,
2013-07-28 04:11:00,68.7,68.2,29.95,West,270,0.0,0.0,98,0.00,,,0.00,meteobridge,2013-07-28 08:11:00,
2013-07-28 04:16:00,68.7,68.2,29.95,SW,225,0.7,0.7,98,0.00,,,0.00,meteobridge,2013-07-28 08:16:00,
2013-07-28 04:22:00,68.7,68.2,29.95,SE,135,0.0,0.7,98,0.00,,,0.00,meteobridge,2013-07-28 08:22:00,
2013-07-28 04:27:00,68.7,68.2,29.94,NW,315,1.6,2.2,98,0.00,,,0.00,meteobridge,2013-07-28 08:27:00,
2013-07-28 04:32:00,68.7,68.2,29.94,South,180,0.7,0.7,98,0.00,,,0.00,meteobridge,2013-07-28 08:32:00,
2013-07-28 04:37:00,68.7,68.2,29.94,North,0,0.0,0.7,98,0.00,,,0.00,meteobridge,2013-07-28 08:37:00,
2013-07-28 04:42:00,68.7,68.2,29.94,SE,135,0.0,0.0,98,0.00,,,0.00,meteobridge,2013-07-28 08:42:00,
2013-07-28 04:47:00,68.5,68.0,29.94,SE,135,0.7,0.7,98,0.00,,,0.00,meteobridge,2013-07-28 08:47:00,
2013-07-28 04:53:00,68.5,68.0,29.95,North,0,1.6,1.6,98,0.00,,,0.00,meteobridge,2013-07-28 08:53:00,
2013-07-28 04:58:00,68.7,68.2,29.94,East,90,0.7,0.7,98,0.00,,,0.00,meteobridge,2013-07-28 08:58:00,
2013-07-28 05:03:00,68.7,68.2,29.95,North,0,0.0,0.7,98,0.00,,,0.00,meteobridge,2013-07-28 09:03:00,
2013-07-28 05:08:00,68.7,68.4,29.95,NE,45,0.7,0.7,99,0.00,,,0.00,meteobridge,2013-07-28 09:08:00,
2013-07-28 05:13:00,68.7,68.4,29.94,South,180,0.7,0.7,99,0.00,,,0.00,meteobridge,2013-07-28 09:13:00,
2013-07-28 05:18:00,68.7,68.4,29.93,South,180,0.0,0.7,99,0.00,,,0.00,meteobridge,2013-07-28 09:18:00,
2013-07-28 05:24:00,68.7,68.4,29.94,East,90,1.6,1.6,99,0.00,,,0.00,meteobridge,2013-07-28 09:24:00,
2013-07-28 05:29:00,68.5,68.2,29.93,WSW,248,0.7,0.7,99,0.00,,,0.00,meteobridge,2013-07-28 09:29:00,
2013-07-28 05:34:00,68.5,68.2,29.93,NE,45,0.0,0.7,99,0.00,,,0.00,meteobridge,2013-07-28 09:34:00,
2013-07-28 05:39:00,68.5,68.2,29.92,NW,315,0.7,0.7,99,0.00,,,0.00,meteobridge,2013-07-28 09:39:00,
2013-07-28 05:44:00,68.4,68.0,29.93,South,180,0.0,0.0,99,0.00,,,0.00,meteobridge,2013-07-28 09:44:00,
2013-07-28 05:49:00,68.2,67.8,29.92,South,180,0.0,0.7,99,0.00,,,0.00,meteobridge,2013-07-28 09:49:00,
2013-07-28 05:55:00,68.2,67.8,29.92,North,0,0.0,0.0,99,0.00,,,0.00,meteobridge,2013-07-28 09:55:00,
2013-07-28 06:00:00,68.2,67.8,29.92,SE,135,0.0,1.6,99,0.00,,,0.00,meteobridge,2013-07-28 10:00:00,
2013-07-28 06:05:00,68.2,67.8,29.93,West,270,0.0,0.7,99,0.00,,,0.00,meteobridge,2013-07-28 10:05:00,
2013-07-28 06:10:00,68.2,67.8,29.94,West,270,0.0,0.0,99,0.00,,,0.00,meteobridge,2013-07-28 10:10:00,
2013-07-28 06:15:00,68.2,67.8,29.94,West,270,0.0,0.0,99,0.00,,,0.00,meteobridge,2013-07-28 10:15:00,
2013-07-28 06:20:00,68.4,68.0,29.94,West,270,0.0,0.0,99,0.00,,,0.00,meteobridge,2013-07-28 10:20:00,
2013-07-28 06:26:00,68.4,68.0,29.93,West,270,0.0,0.0,99,0.00,,,0.00,meteobridge,2013-07-28 10:26:00,
2013-07-28 06:31:00,68.5,68.2,29.93,SE,135,0.7,1.6,99,0.00,,,0.00,meteobridge,2013-07-28 10:31:00,
2013-07-28 06:36:00,68.7,68.4,29.94,South,180,0.0,0.7,99,0.00,,,0.00,meteobridge,2013-07-28 10:36:00,
2013-07-28 06:41:00,68.7,68.4,29.93,West,270,0.0,0.7,99,0.00,,,0.00,meteobridge,2013-07-28 10:41:00,
2013-07-28 06:46:00,68.9,68.5,29.93,South,180,0.0,0.0,99,0.00,,,0.00,meteobridge,2013-07-28 10:46:00,
2013-07-28 06:51:00,68.9,68.5,29.94,SE,135,0.0,0.0,99,0.00,,,0.00,meteobridge,2013-07-28 10:51:00,
2013-07-28 06:56:00,69.1,68.7,29.94,SE,135,0.7,0.7,99,0.00,,,0.00,meteobridge,2013-07-28 10:56:00,
2013-07-28 07:02:00,69.1,68.7,29.95,North,0,0.7,0.7,99,0.00,,,0.00,meteobridge,2013-07-28 11:02:00,
2013-07-28 07:07:00,69.4,69.1,29.95,SE,135,0.7,0.7,99,0.00,,,0.00,meteobridge,2013-07-28 11:07:00,
2013-07-28 07:12:00,69.8,69.3,29.95,SE,135,0.0,0.7,98,0.00,,,0.00,meteobridge,2013-07-28 11:12:00,
2013-07-28 07:17:00,70.3,69.8,29.95,North,0,0.7,1.6,98,0.00,,,0.00,meteobridge,2013-07-28 11:17:00,
2013-07-28 07:22:00,70.7,70.2,29.95,NE,45,0.0,0.0,98,0.00,,,0.00,meteobridge,2013-07-28 11:22:00,
2013-07-28 07:27:00,71.1,70.5,29.94,South,180,0.7,1.6,98,0.00,,,0.00,meteobridge,2013-07-28 11:27:00,
2013-07-28 07:33:00,71.2,70.7,29.95,SE,135,1.6,1.6,98,0.00,,,0.00,meteobridge,2013-07-28 11:33:00,
2013-07-28 07:38:00,71.2,70.7,29.94,North,0,0.7,0.7,98,0.00,,,0.00,meteobridge,2013-07-28 11:38:00,
2013-07-28 07:43:00,71.4,70.9,29.94,SE,135,0.0,0.7,98,0.00,,,0.00,meteobridge,2013-07-28 11:43:00,
2013-07-28 07:48:00,71.6,70.7,29.94,NE,45,0.0,0.7,97,0.00,,,0.00,meteobridge,2013-07-28 11:48:00,
2013-07-28 07:53:00,71.6,70.7,29.94,South,180,0.0,0.0,97,0.00,,,0.00,meteobridge,2013-07-28 11:53:00,
2013-07-28 07:58:00,71.6,70.7,29.94,South,180,0.0,0.7,97,0.00,,,0.00,meteobridge,2013-07-28 11:58:00,
2013-07-28 08:04:00,71.6,70.7,29.94,SE,135,0.7,1.6,97,0.00,,,0.00,meteobridge,2013-07-28 12:04:00,
2013-07-28 08:09:00,71.8,70.9,29.93,South,180,0.0,0.7,97,0.00,,,0.00,meteobridge,2013-07-28 12:09:00,
2013-07-28 08:14:00,72.1,71.2,29.94,NE,45,0.7,0.7,97,0.00,,,0.00,meteobridge,2013-07-28 12:14:00,
2013-07-28 08:19:00,72.3,71.4,29.93,SW,225,0.7,0.7,97,0.00,,,0.00,meteobridge,2013-07-28 12:19:00,
2013-07-28 08:24:00,72.5,71.6,29.93,SE,135,0.0,0.7,97,0.00,,,0.00,meteobridge,2013-07-28 12:24:00,
2013-07-28 08:29:00,72.3,71.4,29.92,SE,135,0.0,0.7,97,0.00,,,0.00,meteobridge,2013-07-28 12:29:00,
2013-07-28 08:35:00,72.3,71.4,29.92,South,180,0.7,0.7,97,0.00,,,0.00,meteobridge,2013-07-28 12:35:00,
2013-07-28 08:40:00,72.5,71.6,29.93,NW,315,0.7,0.7,97,0.00,,,0.00,meteobridge,2013-07-28 12:40:00,
2013-07-28 08:45:00,72.3,71.4,29.93,North,0,0.0,0.7,97,0.00,,,0.00,meteobridge,2013-07-28 12:45:00,
2013-07-28 08:50:00,72.1,71.2,29.93,SE,135,0.7,0.7,97,0.00,,,0.00,meteobridge,2013-07-28 12:50:00,
2013-07-28 08:55:00,72.1,71.2,29.93,East,90,0.7,0.7,97,0.00,,,0.00,meteobridge,2013-07-28 12:55:00,
2013-07-28 09:00:00,72.9,72.0,29.93,South,180,0.0,0.0,97,0.00,,,0.00,meteobridge,2013-07-28 13:00:00,
2013-07-28 09:06:00,73.4,73.0,29.93,South,180,0.0,0.0,99,0.00,,,0.00,meteobridge,2013-07-28 13:06:00,
2013-07-28 09:11:00,73.8,73.4,29.93,South,180,0.0,0.0,99,0.00,,,0.00,meteobridge,2013-07-28 13:11:00,
2013-07-28 09:16:00,74.3,73.9,29.93,South,180,0.7,0.7,99,0.00,,,0.00,meteobridge,2013-07-28 13:16:00,
2013-07-28 09:21:00,74.3,73.9,29.93,SW,225,0.0,0.0,99,0.00,,,0.00,meteobridge,2013-07-28 13:21:00,
2013-07-28 09:26:00,74.7,74.3,29.93,NE,45,0.0,0.0,99,0.00,,,0.00,meteobridge,2013-07-28 13:26:00,
2013-07-28 09:31:00,74.3,73.9,29.92,West,270,0.0,1.6,99,0.00,,,0.00,meteobridge,2013-07-28 13:31:00,
2013-07-28 09:36:00,74.3,73.9,29.93,North,0,0.0,0.7,99,0.00,,,0.00,meteobridge,2013-07-28 13:36:00,
2013-07-28 09:41:00,74.3,73.9,29.93,SE,135,0.7,0.7,99,0.00,,,0.00,meteobridge,2013-07-28 13:41:00,
2013-07-28 09:46:00,74.1,73.8,29.93,SE,135,0.7,1.6,99,0.00,,,0.00,meteobridge,2013-07-28 13:46:00,
2013-07-28 09:51:00,74.1,73.8,29.93,SE,135,0.0,0.0,99,0.00,,,0.00,meteobridge,2013-07-28 13:51:00,
2013-07-28 09:57:00,74.7,74.3,29.93,NW,315,0.0,0.0,99,0.00,,,0.00,meteobridge,2013-07-28 13:57:00,
2013-07-28 10:02:00,75.0,74.7,29.93,NW,315,0.0,0.7,99,0.00,,,0.00,meteobridge,2013-07-28 14:02:00,
2013-07-28 10:07:00,75.0,74.7,29.93,West,270,0.0,0.7,99,0.00,,,0.00,meteobridge,2013-07-28 14:07:00,
2013-07-28 10:12:00,75.2,74.8,29.93,South,180,0.0,1.6,99,0.00,,,0.00,meteobridge,2013-07-28 14:12:00,
2013-07-28 10:17:00,75.2,74.8,29.93,SW,225,0.7,0.7,99,0.00,,,0.00,meteobridge,2013-07-28 14:17:00,
2013-07-28 10:22:00,75.7,75.4,29.94,South,180,0.0,0.0,99,0.00,,,0.00,meteobridge,2013-07-28 14:22:00,
2013-07-28 10:28:00,76.1,75.7,29.94,North,0,0.7,0.7,99,0.00,,,0.00,meteobridge,2013-07-28 14:28:00,
2013-07-28 10:33:00,76.3,75.9,29.94,SW,225,0.7,0.7,99,0.00,,,0.00,meteobridge,2013-07-28 14:33:00,
2013-07-28 10:38:00,76.5,76.1,29.94,SW,225,0.0,0.7,99,0.00,,,0.00,meteobridge,2013-07-28 14:38:00,
2013-07-28 10:43:00,76.5,75.9,29.94,SW,225,0.7,0.7,98,0.00,,,0.00,meteobridge,2013-07-28 14:43:00,
2013-07-28 10:48:00,76.1,75.6,29.94,SW,225,0.0,0.7,98,0.00,,,0.00,meteobridge,2013-07-28 14:48:00,
2013-07-28 10:53:00,76.1,75.6,29.94,South,180,0.7,0.7,98,0.00,,,0.00,meteobridge,2013-07-28 14:53:00,
2013-07-28 10:59:00,76.5,75.9,29.94,South,180,0.7,1.6,98,0.00,,,0.00,meteobridge,2013-07-28 14:59:00,
2013-07-28 11:04:00,76.8,75.9,29.94,South,180,0.7,1.6,97,0.00,,,0.00,meteobridge,2013-07-28 15:04:00,
2013-07-28 11:09:00,76.8,75.9,29.94,SW,225,0.7,0.7,97,0.00,,,0.00,meteobridge,2013-07-28 15:09:00,
2013-07-28 11:14:00,77.2,75.9,29.94,SW,225,0.0,0.7,96,0.00,,,0.00,meteobridge,2013-07-28 15:14:00,
2013-07-28 11:19:00,77.2,75.6,29.94,East,90,0.0,0.7,95,0.00,,,0.00,meteobridge,2013-07-28 15:19:00,
2013-07-28 11:24:00,77.2,75.6,29.94,SW,225,0.7,0.7,95,0.00,,,0.00,meteobridge,2013-07-28 15:24:00,
2013-07-28 11:30:00,77.0,75.2,29.94,SW,225,0.7,0.7,94,0.00,,,0.00,meteobridge,2013-07-28 15:30:00,
2013-07-28 11:35:00,77.0,74.8,29.95,South,180,0.7,0.7,93,0.00,,,0.00,meteobridge,2013-07-28 15:35:00,
2013-07-28 11:40:00,76.8,75.0,29.95,SW,225,0.0,0.7,94,0.00,,,0.00,meteobridge,2013-07-28 15:40:00,
2013-07-28 11:45:00,76.6,74.5,29.95,SW,225,0.7,0.7,93,0.00,,,0.00,meteobridge,2013-07-28 15:45:00,
2013-07-28 11:50:00,77.0,74.5,29.95,North,0,0.7,0.7,92,0.00,,,0.00,meteobridge,2013-07-28 15:50:00,
2013-07-28 11:56:00,76.8,74.3,29.95,South,180,0.7,0.7,92,0.00,,,0.00,meteobridge,2013-07-28 15:56:00,
2013-07-28 12:01:00,77.0,73.8,29.95,West,270,0.7,0.7,90,0.00,,,0.00,meteobridge,2013-07-28 16:01:00,
2013-07-28 12:06:00,77.2,73.8,29.95,SW,225,0.7,0.7,89,0.00,,,0.00,meteobridge,2013-07-28 16:06:00,
2013-07-28 12:11:00,77.4,73.9,29.95,SW,225,0.0,0.7,89,0.00,,,0.00,meteobridge,2013-07-28 16:11:00,
2013-07-28 12:16:00,77.7,73.6,29.95,SW,225,0.7,0.7,87,0.00,,,0.00,meteobridge,2013-07-28 16:16:00,
2013-07-28 12:21:00,77.9,73.8,29.95,NW,315,1.6,1.6,87,0.00,,,0.00,meteobridge,2013-07-28 16:21:00,
2013-07-28 12:26:00,78.6,74.5,29.95,SW,225,0.7,0.7,87,0.00,,,0.00,meteobridge,2013-07-28 16:26:00,
2013-07-28 12:31:00,79.5,74.7,29.95,SW,225,0.7,2.2,85,0.00,,,0.00,meteobridge,2013-07-28 16:31:00,
2013-07-28 12:37:00,79.9,74.7,29.94,NW,315,0.7,0.7,84,0.00,,,0.00,meteobridge,2013-07-28 16:37:00,
2013-07-28 12:42:00,80.6,74.7,29.95,South,180,0.0,0.7,82,0.00,,,0.00,meteobridge,2013-07-28 16:42:00,
2013-07-28 12:47:00,81.1,74.7,29.95,SW,225,0.0,0.7,81,0.00,,,0.00,meteobridge,2013-07-28 16:47:00,
2013-07-28 12:52:00,81.7,75.2,29.95,SW,225,0.7,0.7,81,0.00,,,0.00,meteobridge,2013-07-28 16:52:00,
2013-07-28 12:57:00,81.9,74.3,29.95,SE,135,0.7,0.7,78,0.00,,,0.00,meteobridge,2013-07-28 16:57:00,
2013-07-28 13:02:00,81.5,73.2,29.95,SW,225,0.0,0.7,76,0.00,,,0.00,meteobridge,2013-07-28 17:02:00,
2013-07-28 13:07:00,81.5,73.6,29.95,SW,225,0.0,0.7,77,0.00,,,0.00,meteobridge,2013-07-28 17:07:00,
2013-07-28 13:13:00,82.2,73.9,29.95,South,180,0.7,0.7,76,0.00,,,0.00,meteobridge,2013-07-28 17:13:00,
2013-07-28 13:18:00,81.0,72.0,29.95,SW,225,0.0,1.6,74,0.00,,,0.00,meteobridge,2013-07-28 17:18:00,
2013-07-28 13:23:00,80.4,72.5,29.95,SW,225,0.0,0.0,77,0.00,,,0.00,meteobridge,2013-07-28 17:23:00,
2013-07-28 13:28:00,80.1,72.5,29.95,SW,225,0.7,0.7,78,0.00,,,0.00,meteobridge,2013-07-28 17:28:00,
2013-07-28 13:33:00,79.9,72.9,29.95,South,180,0.7,0.7,79,0.00,,,0.00,meteobridge,2013-07-28 17:33:00,
2013-07-28 13:38:00,80.2,72.7,29.95,East,90,0.7,0.7,78,0.00,,,0.00,meteobridge,2013-07-28 17:38:00,
2013-07-28 13:44:00,80.4,72.9,29.95,West,270,0.7,1.6,78,0.00,,,0.00,meteobridge,2013-07-28 17:44:00,
2013-07-28 13:49:00,80.6,72.7,29.96,West,270,0.7,0.7,77,0.00,,,0.00,meteobridge,2013-07-28 17:49:00,
2013-07-28 13:54:00,80.1,72.1,29.96,West,270,0.7,0.7,77,0.00,,,0.00,meteobridge,2013-07-28 17:54:00,
2013-07-28 13:59:00,79.3,71.4,29.96,West,270,0.0,0.0,77,0.00,,,0.00,meteobridge,2013-07-28 17:59:00,
2013-07-28 14:04:00,79.5,72.5,29.96,SW,225,0.0,0.0,79,0.00,,,0.00,meteobridge,2013-07-28 18:04:00,
2013-07-28 14:09:00,79.7,72.1,29.95,East,90,1.6,1.6,78,0.00,,,0.00,meteobridge,2013-07-28 18:09:00,
2013-07-28 14:15:00,79.3,72.0,29.95,SW,225,0.7,0.7,78,0.00,,,0.00,meteobridge,2013-07-28 18:15:00,
2013-07-28 14:20:00,79.7,72.1,29.96,North,0,0.7,1.6,78,0.00,,,0.00,meteobridge,2013-07-28 18:20:00,
2013-07-28 14:25:00,80.1,72.5,29.96,SW,225,0.0,0.7,78,0.00,,,0.00,meteobridge,2013-07-28 18:25:00,
2013-07-28 14:30:00,80.1,72.5,29.96,SW,225,0.7,0.7,78,0.00,,,0.00,meteobridge,2013-07-28 18:30:00,
2013-07-28 14:35:00,79.3,72.0,29.96,West,270,0.0,0.0,78,0.00,,,0.00,meteobridge,2013-07-28 18:35:00,
2013-07-28 14:40:00,79.0,71.6,29.96,North,0,0.7,1.6,78,0.00,,,0.00,meteobridge,2013-07-28 18:40:00,
2013-07-28 14:46:00,78.6,71.6,29.95,South,180,0.7,0.7,79,0.00,,,0.00,meteobridge,2013-07-28 18:46:00,
2013-07-28 14:51:00,78.1,71.1,29.95,NW,315,0.0,0.7,79,0.00,,,0.00,meteobridge,2013-07-28 18:51:00,
2013-07-28 14:56:00,77.4,70.7,29.95,SW,225,0.7,0.7,80,0.00,,,0.00,meteobridge,2013-07-28 18:56:00,
2013-07-28 15:01:00,77.0,71.1,29.95,SW,225,0.0,0.0,82,0.00,,,0.00,meteobridge,2013-07-28 19:01:00,
2013-07-28 15:06:00,77.2,71.2,29.95,NW,315,1.6,1.6,82,0.00,,,0.00,meteobridge,2013-07-28 19:06:00,
2013-07-28 15:12:00,77.2,71.6,29.95,NW,315,0.0,0.7,83,0.00,,,0.00,meteobridge,2013-07-28 19:12:00,
2013-07-28 15:17:00,77.4,71.8,29.95,West,270,0.7,0.7,83,0.00,,,0.00,meteobridge,2013-07-28 19:17:00,
2013-07-28 15:22:00,78.6,73.0,29.95,SW,225,0.7,0.7,83,0.00,,,0.00,meteobridge,2013-07-28 19:22:00,
2013-07-28 15:27:00,79.0,71.6,29.94,North,0,0.0,0.7,78,0.00,,,0.00,meteobridge,2013-07-28 19:27:00,
2013-07-28 15:32:00,78.6,71.6,29.94,West,270,0.7,0.7,79,0.00,,,0.00,meteobridge,2013-07-28 19:32:00,
2013-07-28 15:37:00,78.6,72.0,29.94,NW,315,0.7,0.7,80,0.00,,,0.00,meteobridge,2013-07-28 19:37:00,
2013-07-28 15:42:00,78.6,72.3,29.94,West,270,0.0,0.7,81,0.00,,,0.00,meteobridge,2013-07-28 19:42:00,
2013-07-28 15:48:00,78.6,72.0,29.95,West,270,0.7,0.7,80,0.00,,,0.00,meteobridge,2013-07-28 19:48:00,
2013-07-28 15:53:00,78.1,71.4,29.96,NW,315,0.7,0.7,80,0.00,,,0.00,meteobridge,2013-07-28 19:53:00,
2013-07-28 15:58:00,77.7,71.8,29.96,NW,315,0.7,0.7,82,0.00,,,0.00,meteobridge,2013-07-28 19:58:00,
2013-07-28 16:03:00,77.2,70.9,29.96,SW,225,0.7,0.7,81,0.00,,,0.00,meteobridge,2013-07-28 20:03:00,
2013-07-28 16:08:00,76.5,70.9,29.96,North,0,0.7,0.7,83,0.00,,,0.00,meteobridge,2013-07-28 20:08:00,
2013-07-28 16:14:00,75.6,70.3,29.96,East,90,0.7,0.7,84,0.00,,,0.00,meteobridge,2013-07-28 20:14:00,
2013-07-28 16:19:00,74.8,70.0,29.96,North,0,1.6,1.6,85,0.00,,,0.00,meteobridge,2013-07-28 20:19:00,
2013-07-28 16:24:00,74.5,70.0,29.96,North,0,0.0,0.0,86,0.00,,,0.00,meteobridge,2013-07-28 20:24:00,
2013-07-28 16:29:00,74.5,70.3,29.97,East,90,0.7,0.7,87,0.00,,,0.00,meteobridge,2013-07-28 20:29:00,
2013-07-28 16:34:00,74.8,70.7,29.97,NW,315,0.7,0.7,87,0.00,,,0.00,meteobridge,2013-07-28 20:34:00,
2013-07-28 16:40:00,75.0,70.9,29.97,East,90,0.7,0.7,87,0.00,,,0.00,meteobridge,2013-07-28 20:40:00,
2013-07-28 16:45:00,75.0,70.5,29.97,NE,45,0.0,0.7,86,0.00,,,0.00,meteobridge,2013-07-28 20:45:00,
2013-07-28 16:50:00,75.2,70.7,29.97,North,0,0.7,0.7,86,0.00,,,0.00,meteobridge,2013-07-28 20:50:00,
2013-07-28 16:55:00,75.2,70.7,29.97,North,0,0.7,0.7,86,0.00,,,0.00,meteobridge,2013-07-28 20:55:00,
2013-07-28 17:00:00,74.8,70.3,29.97,NE,45,0.0,0.7,86,0.00,,,0.00,meteobridge,2013-07-28 21:00:00,
2013-07-28 17:05:00,74.8,70.7,29.96,NW,315,0.0,0.0,87,0.00,,,0.00,meteobridge,2013-07-28 21:05:00,
2013-07-28 17:11:00,74.8,70.7,29.97,SW,225,0.7,0.7,87,0.00,,,0.00,meteobridge,2013-07-28 21:11:00,
2013-07-28 17:16:00,74.5,70.3,29.97,NW,315,0.7,1.6,87,0.00,,,0.00,meteobridge,2013-07-28 21:16:00,
2013-07-28 17:21:00,74.5,70.3,29.97,North,0,0.7,0.7,87,0.00,,,0.00,meteobridge,2013-07-28 21:21:00,
2013-07-28 17:26:00,74.5,70.3,29.96,NE,45,0.0,0.0,87,0.00,,,0.00,meteobridge,2013-07-28 21:26:00,
2013-07-28 17:31:00,74.5,70.7,29.96,SE,135,0.0,0.0,88,0.00,,,0.00,meteobridge,2013-07-28 21:31:00,
2013-07-28 17:36:00,74.5,70.7,29.96,NE,45,0.0,0.0,88,0.00,,,0.00,meteobridge,2013-07-28 21:36:00,
2013-07-28 17:42:00,74.5,70.3,29.96,North,0,0.0,0.0,87,0.00,,,0.00,meteobridge,2013-07-28 21:42:00,
2013-07-28 17:47:00,74.3,70.2,29.96,NW,315,0.0,0.0,87,0.00,,,0.00,meteobridge,2013-07-28 21:47:00,
2013-07-28 17:52:00,73.9,69.8,29.95,East,90,0.7,0.7,87,0.00,,,0.00,meteobridge,2013-07-28 21:52:00,
2013-07-28 17:57:00,73.6,69.8,29.95,NW,315,0.0,0.0,88,0.00,,,0.00,meteobridge,2013-07-28 21:57:00,
2013-07-28 18:02:00,73.6,69.8,29.96,NW,315,0.0,0.0,88,0.00,,,0.00,meteobridge,2013-07-28 22:02:00,
2013-07-28 18:07:00,73.6,69.8,29.96,West,270,0.0,0.0,88,0.00,,,0.00,meteobridge,2013-07-28 22:07:00,
2013-07-28 18:13:00,73.4,69.6,29.96,North,0,0.0,0.0,88,0.00,,,0.00,meteobridge,2013-07-28 22:13:00,
2013-07-28 18:18:00,73.4,70.0,29.96,North,0,0.7,0.7,89,0.00,,,0.00,meteobridge,2013-07-28 22:18:00,
2013-07-28 18:23:00,73.2,69.4,29.96,North,0,0.0,0.0,88,0.00,,,0.00,meteobridge,2013-07-28 22:23:00,
2013-07-28 18:28:00,73.2,69.8,29.96,North,0,0.0,0.0,89,0.00,,,0.00,meteobridge,2013-07-28 22:28:00,
2013-07-28 18:33:00,73.2,69.8,29.96,North,0,0.0,0.0,89,0.00,,,0.00,meteobridge,2013-07-28 22:33:00,
2013-07-28 18:38:00,73.0,69.6,29.96,West,270,0.7,0.7,89,0.00,,,0.00,meteobridge,2013-07-28 22:38:00,
2013-07-28 18:44:00,72.9,69.4,29.96,South,180,0.0,0.0,89,0.00,,,0.00,meteobridge,2013-07-28 22:44:00,
2013-07-28 18:49:00,72.7,69.3,29.96,SE,135,0.7,0.7,89,0.00,,,0.00,meteobridge,2013-07-28 22:49:00,
2013-07-28 18:54:00,72.5,69.4,29.96,NW,315,0.0,0.0,90,0.00,,,0.00,meteobridge,2013-07-28 22:54:00,
2013-07-28 18:59:00,72.3,69.3,29.96,West,270,0.0,0.7,90,0.00,,,0.00,meteobridge,2013-07-28 22:59:00,
2013-07-28 19:04:00,72.1,69.1,29.96,West,270,0.0,0.0,90,0.00,,,0.00,meteobridge,2013-07-28 23:04:00,
2013-07-28 19:09:00,72.0,68.9,29.97,West,270,0.0,0.0,90,0.00,,,0.00,meteobridge,2013-07-28 23:09:00,
2013-07-28 19:15:00,71.8,69.1,29.97,West,270,0.0,0.0,91,0.00,,,0.00,meteobridge,2013-07-28 23:15:00,
2013-07-28 19:20:00,71.8,69.1,29.97,West,270,0.0,0.0,91,0.00,,,0.00,meteobridge,2013-07-28 23:20:00,
2013-07-28 19:25:00,71.8,69.1,29.97,West,270,0.0,0.0,91,0.00,,,0.00,meteobridge,2013-07-28 23:25:00,
2013-07-28 19:30:00,71.6,68.9,29.97,West,270,0.0,0.0,91,0.00,,,0.00,meteobridge,2013-07-28 23:30:00,
2013-07-28 19:35:00,71.6,68.9,29.98,West,270,0.0,0.0,91,0.00,,,0.00,meteobridge,2013-07-28 23:35:00,
2013-07-28 19:41:00,71.4,69.3,29.97,West,270,0.0,0.0,93,0.00,,,0.00,meteobridge,2013-07-28 23:41:00,
2013-07-28 19:46:00,71.4,69.3,29.98,West,270,0.0,0.0,93,0.00,,,0.00,meteobridge,2013-07-28 23:46:00,
2013-07-28 19:51:00,71.4,69.3,29.98,West,270,0.7,0.7,93,0.00,,,0.00,meteobridge,2013-07-28 23:51:00,
2013-07-28 19:56:00,71.2,69.1,29.98,West,270,0.0,0.0,93,0.00,,,0.00,meteobridge,2013-07-28 23:56:00,
2013-07-28 20:01:00,71.1,68.9,29.98,West,270,0.0,0.0,93,0.00,,,0.00,meteobridge,2013-07-29 00:01:00,
2013-07-28 20:06:00,71.1,68.9,29.98,West,270,0.0,0.0,93,0.00,,,0.00,meteobridge,2013-07-29 00:06:00,
2013-07-28 20:11:00,70.9,69.1,29.97,West,270,0.0,0.0,94,0.00,,,0.00,meteobridge,2013-07-29 00:11:00,
2013-07-28 20:16:00,70.9,69.1,29.97,West,270,0.0,0.0,94,0.00,,,0.00,meteobridge,2013-07-29 00:16:00,
2013-07-28 20:22:00,70.7,68.9,29.97,NE,45,0.0,0.0,94,0.00,,,0.00,meteobridge,2013-07-29 00:22:00,
2013-07-28 20:27:00,70.7,68.9,29.97,NE,45,0.0,0.0,94,0.00,,,0.00,meteobridge,2013-07-29 00:27:00,
2013-07-28 20:32:00,70.7,68.9,29.97,NE,45,0.0,0.0,94,0.00,,,0.00,meteobridge,2013-07-29 00:32:00,
2013-07-28 20:37:00,70.5,68.7,29.97,NE,45,0.0,0.0,94,0.00,,,0.00,meteobridge,2013-07-29 00:37:00,
2013-07-28 20:42:00,70.5,68.7,29.97,NE,45,0.0,0.0,94,0.00,,,0.00,meteobridge,2013-07-29 00:42:00,
2013-07-28 20:47:00,70.5,69.1,29.97,NE,45,0.0,0.0,95,0.00,,,0.00,meteobridge,2013-07-29 00:47:00,
2013-07-28 20:53:00,70.5,69.1,29.98,NE,45,0.0,0.0,95,0.00,,,0.00,meteobridge,2013-07-29 00:53:00,
2013-07-28 20:58:00,70.5,69.1,29.98,NE,45,0.0,0.0,95,0.00,,,0.00,meteobridge,2013-07-29 00:58:00,
2013-07-28 21:03:00,70.5,69.1,29.98,NE,45,0.0,0.0,95,0.00,,,0.00,meteobridge,2013-07-29 01:03:00,
2013-07-28 21:08:00,70.7,69.3,29.98,NE,45,0.0,0.0,95,0.00,,,0.00,meteobridge,2013-07-29 01:08:00,
2013-07-28 21:13:00,70.7,69.3,29.99,NW,315,0.7,0.7,95,0.00,,,0.00,meteobridge,2013-07-29 01:13:00,
2013-07-28 21:18:00,70.5,69.3,29.99,NW,315,0.0,0.0,96,0.00,,,0.00,meteobridge,2013-07-29 01:18:00,
2013-07-28 21:24:00,70.5,69.3,29.99,NW,315,0.0,0.0,96,0.00,,,0.00,meteobridge,2013-07-29 01:24:00,
2013-07-28 21:29:00,70.3,69.1,29.99,NW,315,0.0,0.0,96,0.00,,,0.00,meteobridge,2013-07-29 01:29:00,
2013-07-28 21:34:00,70.3,69.1,30.00,NW,315,0.0,0.0,96,0.00,,,0.00,meteobridge,2013-07-29 01:34:00,
2013-07-28 21:39:00,70.3,69.1,30.00,NW,315,0.0,0.0,96,0.00,,,0.00,meteobridge,2013-07-29 01:39:00,
2013-07-28 21:44:00,70.3,69.1,30.00,South,180,0.0,0.0,96,0.00,,,0.00,meteobridge,2013-07-29 01:44:00,
2013-07-28 21:49:00,70.3,69.1,30.00,South,180,0.0,0.0,96,0.00,,,0.00,meteobridge,2013-07-29 01:49:00,
2013-07-28 21:54:00,70.3,69.1,30.01,South,180,0.0,0.7,96,0.00,,,0.00,meteobridge,2013-07-29 01:54:00,
2013-07-28 22:00:00,70.3,69.1,30.01,South,180,0.0,0.0,96,0.00,,,0.00,meteobridge,2013-07-29 02:00:00,
2013-07-28 22:05:00,70.3,69.1,30.01,South,180,0.0,0.0,96,0.00,,,0.00,meteobridge,2013-07-29 02:05:00,
2013-07-28 22:10:00,70.3,69.4,30.01,South,180,0.0,0.0,97,0.00,,,0.00,meteobridge,2013-07-29 02:10:00,
2013-07-28 22:15:00,70.3,69.4,30.01,South,180,0.0,0.0,97,0.00,,,0.00,meteobridge,2013-07-29 02:15:00,
2013-07-28 22:20:00,70.3,69.4,30.01,South,180,0.0,0.0,97,0.00,,,0.00,meteobridge,2013-07-29 02:20:00,
2013-07-28 22:25:00,70.3,69.4,30.01,South,180,0.0,0.0,97,0.00,,,0.00,meteobridge,2013-07-29 02:25:00,
2013-07-28 22:30:00,70.3,69.4,30.02,South,180,0.0,0.0,97,0.00,,,0.00,meteobridge,2013-07-29 02:30:00,
2013-07-28 22:35:00,70.3,69.4,30.02,South,180,0.0,0.0,97,0.00,,,0.00,meteobridge,2013-07-29 02:35:00,
2013-07-28 22:40:00,70.3,69.4,30.01,South,180,0.0,0.0,97,0.00,,,0.00,meteobridge,2013-07-29 02:40:00,
2013-07-28 22:46:00,70.3,69.4,30.01,South,180,0.0,0.0,97,0.00,,,0.00,meteobridge,2013-07-29 02:46:00,
2013-07-28 22:51:00,70.3,69.4,30.01,South,180,0.0,0.0,97,0.00,,,0.00,meteobridge,2013-07-29 02:51:00,
2013-07-28 22:57:00,70.3,69.4,30.01,South,180,0.0,0.0,97,0.00,,,0.00,meteobridge,2013-07-29 02:57:00,
2013-07-28 23:02:00,70.3,69.4,30.01,South,180,0.0,0.0,97,0.00,,,0.00,meteobridge,2013-07-29 03:02:00,
2013-07-28 23:07:00,70.2,69.3,30.00,South,180,0.0,0.0,97,0.00,,,0.00,meteobridge,2013-07-29 03:07:00,
2013-07-28 23:12:00,70.2,69.3,29.99,South,180,0.0,0.0,97,0.00,,,0.00,meteobridge,2013-07-29 03:12:00,
2013-07-28 23:17:00,70.2,69.3,29.99,South,180,0.0,0.0,97,0.00,,,0.00,meteobridge,2013-07-29 03:17:00,
2013-07-28 23:22:00,70.2,69.3,29.99,South,180,0.0,0.0,97,0.00,,,0.00,meteobridge,2013-07-29 03:22:00,
2013-07-28 23:27:00,70.0,69.4,29.99,South,180,0.0,0.0,98,0.00,,,0.00,meteobridge,2013-07-29 03:27:00,
2013-07-28 23:33:00,70.0,69.4,29.98,South,180,0.0,0.0,98,0.00,,,0.00,meteobridge,2013-07-29 03:33:00,
2013-07-28 23:38:00,70.0,69.4,29.98,South,180,0.0,0.0,98,0.00,,,0.00,meteobridge,2013-07-29 03:38:00,
2013-07-28 23:43:00,70.0,69.4,29.98,South,180,0.0,0.0,98,0.00,,,0.00,meteobridge,2013-07-29 03:43:00,
2013-07-28 23:48:00,70.0,69.4,29.98,South,180,0.0,0.0,98,0.00,,,0.00,meteobridge,2013-07-29 03:48:00,
2013-07-28 23:53:00,70.0,69.4,29.98,South,180,0.0,0.0,98,0.00,,,0.00,meteobridge,2013-07-29 03:53:00,
2013-07-28 23:58:00,69.8,69.3,29.98,South,180,0.0,0.0,98,0.00,,,0.00,meteobridge,2013-07-29 03:58:00,